sat.trackr.live / text

‹ back to catalog

ZHUQUE-2E DEB

NORAD 69633 · 2026-128H

DEBRIS UNKNOWN UNKNOWN

§ Identity

Operator
Country
PRC
Launch date
2026-06-09
Launch site
JSC
Launch vehicle
Mass (kg)
RCS (m²)

External: N2YO · Heavens-Above · Gunter

§ Orbital elements

Epoch: 2026-06-19T11:16:19.091424Z

Period
88.51 min
Inclination
54.5181°
Eccentricity
0.0024355
Mean motion
16.26843543 rev/d
Perigee alt
185.0 km
Apogee alt
217.1 km
Semi-major
6,579.2 km
B*
4.1525e-3
RAAN
290.8343°
Arg perigee
6.3989°
Mean anomaly
353.7378°
Rev number
146

§ Raw data

ZHUQUE-2E DEB1 69633U 26128H   26170.46966541  .15785737  12228-4  41525-2 0  99942 69633  54.5181 290.8343 0024355   6.3989 353.7378 16.26843543  1465

JSON: /api/v1/satellites/69633 · /tle

For live sub-satellite position, see the globe view (requires WebGL).

§ Visibility from observer

Set your observer location to see the next 7 days of passes ≥ 10°. The values pass through the URL so the page stays shareable.

No JS? Fill the form by hand. The geolocation button needs JavaScript.